Вернуться в каталог

STARLINK-37799

АктивенСвязьSSO
NORAD 69317·PAYLOAD·🇺🇸 United States

Запущен May 30, 2026 с Vandenberg Space Force Base

Loading…

Ближайшие Пролёты (ближайшие 24 часа)

TLE

СвежийSource: CelesTrak SupGP

Эпоха: Sep 15, 2026, 03:06 UTC

1 69317C 26119X   26258.12965278 -.00040265  00000+0 -12500-2 0  2584
2 69317  97.2833 283.0083 0001280  87.5607 311.9485 15.33458383    13

Отслеживайте STARLINK-37799 в реальном времени с AllMySat

Download on the App Store